Ord, NE

10:51 AM CDT on June 26, 2017 (GMT -0500)
Sharp

Weather History for KODX - November, 2012

Change the Weather History Date:

Saturday, November 10, 2012

  Actual Average Record
Temperature  
Mean Temperature 39 °F 39 °F  
Max Temperature 53 °F 51 °F 75 °F (2016)
Min Temperature 24 °F 27 °F 12 °F (2000)
Degree Days  
Heating Degree Days 26 26  
Month to date heating degree days 239 239  
Since 1 July heating degree days 930 859  
Cooling Degree Days 0 0  
Month to date cooling degree days 0 0  
Year to date cooling degree days 1220 845  
Moisture  
Dew Point 34 °F    
Average Humidity 82    
Maximum Humidity 100    
Minimum Humidity 63    
Precipitation  
Precipitation 0.05 in 0.04 in 0.66 in (1998)
Month to date precipitation 0.05 0.43  
Year to date precipitation 11.42 23.71  
Sea Level Pressure  
Sea Level Pressure 29.61 in    
Wind  
Wind Speed 11 mph (NW)    
Max Wind Speed 32 mph    
Max Gust Speed 44 mph    
Visibility 6 miles    
Events Fog , Rain , Snow , Thunderstorm    
T = Trace of Precipitation, MM = Missing Value Source: NWS Daily Summary

Daily Weather History Graph

Daily Weather History Graph

Search for Another Location

Airport or City:

Trip Planner

Search our weather history database for the weather conditions in past years. The results will help you decide how hot, cold, wet, or windy it might be!

Date:

Astronomy

Nov. 10, 2012 Rise Set
Actual Time 7:19 AM CST 5:19 PM CST
Civil Twilight 6:49 AM CST 5:49 PM CST
Nautical Twilight 6:16 AM CST 6:22 PM CST
Astronomical Twilight 5:43 AM CST 6:55 PM CST
Moon 3:23 AM CST (11/10) 3:09 PM CST (11/10)
Length of Visible Light 10h 59m
Length of Day
10h 00m
Waning Crescent, 14% of the Moon is Illuminated
Nov 10
Waning Crescent
Nov 13
New
Nov 20
First Quarter
Nov 28
Full
Dec 6
Last Quarter

Hourly Weather History & Observations

Time (CST) Temp. Windchill Dew Point Humidity Pressure Visibility Wind Dir Wind Speed Gust Speed Precip Events Conditions
12:53 AM 34.0 °F 28.8 °F 34.0 °F 100% 29.64 in 0.2 mi NNW 5.8 mph - N/A Fog Fog
1:53 AM 34.0 °F 28.8 °F 33.1 °F 96% 29.60 in 0.2 mi NNW 5.8 mph - N/A Fog Fog
2:28 AM 33.8 °F 30.8 °F 33.8 °F 100% 29.57 in 0.2 mi NNW 3.5 mph - N/A Fog Fog
2:53 AM 35.1 °F 30.1 °F 35.1 °F 100% 29.59 in 0.2 mi NNW 5.8 mph - N/A Fog Fog
3:53 AM 35.6 °F 30.7 °F 35.6 °F 100% 29.55 in 0.2 mi NW 5.8 mph - N/A Fog Fog
4:53 AM 36.0 °F - 36.0 °F 100% 29.59 in 0.5 mi Calm Calm - N/A Fog Fog
5:02 AM 35.6 °F 32.8 °F 35.6 °F 100% 29.56 in 1.2 mi WNW 3.5 mph - N/A   Overcast
5:17 AM 35.6 °F - 35.6 °F 100% 29.56 in 2.5 mi Calm Calm - N/A   Overcast
5:53 AM 37.0 °F - 36.0 °F 96% 29.60 in 2.5 mi Calm Calm - N/A   Overcast
6:13 AM 37.4 °F - 35.6 °F 93% 29.57 in 3.0 mi Calm Calm - N/A   Overcast
6:32 AM 37.4 °F - 37.4 °F 100% 29.56 in 3.0 mi Calm Calm - N/A   Overcast
6:43 AM 37.4 °F 32.8 °F 37.4 °F 100% 29.56 in 2.0 mi NW 5.8 mph - N/A   Overcast
6:51 AM 37.4 °F 34.9 °F 37.4 °F 100% 29.56 in 1.5 mi NW 3.5 mph - N/A   Overcast
6:53 AM 37.9 °F 35.5 °F 37.9 °F 100% 29.59 in 1.5 mi NW 3.5 mph - N/A   Overcast
7:03 AM 37.4 °F - 37.4 °F 100% 29.56 in 0.8 mi Calm Calm - N/A   Overcast
7:53 AM 39.0 °F 36.8 °F 37.9 °F 96% 29.62 in 0.2 mi SW 3.5 mph - N/A Fog Fog
8:41 AM 39.2 °F 37.0 °F 39.2 °F 100% 29.58 in 1.0 mi South 3.5 mph - N/A   Overcast
8:53 AM 39.9 °F 35.1 °F 39.9 °F 100% 29.64 in 1.0 mi SW 6.9 mph - N/A   Overcast
9:11 AM 41.0 °F 37.1 °F 39.2 °F 93% 29.58 in 1.8 mi WNW 5.8 mph - N/A   Overcast
9:18 AM 41.0 °F 38.0 °F 39.2 °F 93% 29.58 in 2.5 mi West 4.6 mph - N/A   Overcast
9:29 AM 41.0 °F 37.1 °F 39.2 °F 93% 29.58 in 3.0 mi West 5.8 mph - N/A   Overcast
9:53 AM 41.0 °F 36.4 °F 39.9 °F 96% 29.62 in 3.0 mi WNW 6.9 mph - N/A   Overcast
10:40 AM 44.6 °F 43.1 °F 39.2 °F 81% 29.56 in 5.0 mi NW 3.5 mph - N/A   Haze
10:53 AM 46.0 °F 41.4 °F 39.9 °F 79% 29.59 in 6.0 mi NNW 9.2 mph - N/A   Haze
11:21 AM 46.4 °F 42.9 °F 39.2 °F 76% 29.55 in 6.0 mi NNW 6.9 mph - N/A   Haze
11:53 AM 46.9 °F - 39.9 °F 77% 29.58 in 7.0 mi NNW 3.5 mph - N/A   Partly Cloudy
12:53 PM 51.1 °F - 41.0 °F 68% 29.55 in 8.0 mi NW 8.1 mph - N/A   Partly Cloudy
1:53 PM 52.0 °F - 39.9 °F 63% 29.52 in 10.0 mi NNW 11.5 mph 16.1 mph N/A   Clear
2:53 PM 48.9 °F - 39.0 °F 69% 29.50 in 10.0 mi NNW 16.1 mph - N/A   Partly Cloudy
3:53 PM 44.1 °F 37.1 °F 36.0 °F 73% 29.53 in 10.0 mi NNW 15.0 mph - 0.00 in   Overcast
4:26 PM 42.8 °F 35.1 °F 37.4 °F 81% 29.49 in 10.0 mi NNW 16.1 mph - 0.00 in Rain , Thunderstorm Light Rain
4:41 PM 42.8 °F 35.1 °F 37.4 °F 81% 29.53 in 10.0 mi NW 16.1 mph 23.0 mph 0.00 in   Overcast
4:53 PM 42.1 °F 34.5 °F 36.0 °F 79% 29.57 in 10.0 mi NW 15.0 mph - 0.00 in   Overcast
5:01 PM 42.8 °F 35.8 °F 35.6 °F 76% 29.55 in 10.0 mi NW 13.8 mph - N/A   Overcast
5:30 PM 41.0 °F 32.2 °F 37.4 °F 87% 29.52 in 10.0 mi NNW 18.4 mph 24.2 mph 0.00 in   Overcast
5:39 PM 41.0 °F 31.9 °F 37.4 °F 87% 29.52 in 9.0 mi NNW 19.6 mph - 0.00 in Rain Light Rain
5:53 PM 39.9 °F 30.0 °F 37.0 °F 89% 29.55 in 10.0 mi NNW 21.9 mph 33.4 mph 0.01 in Rain Light Rain
6:13 PM 39.2 °F 29.0 °F 35.6 °F 87% 29.57 in 10.0 mi NNW 21.9 mph 32.2 mph 0.00 in Rain Light Rain
6:45 PM 37.4 °F 27.8 °F 33.8 °F 87% 29.64 in 10.0 mi NW 17.3 mph 26.5 mph 0.00 in Rain Light Rain
6:53 PM 37.0 °F 27.0 °F 34.0 °F 89% 29.70 in 9.0 mi NW 18.4 mph 25.3 mph 0.01 in Rain Rain
7:05 PM 35.6 °F 23.2 °F 33.8 °F 93% 29.61 in 4.0 mi NNW 26.5 mph 34.5 mph 0.03 in Rain Rain
7:36 PM 33.8 °F 21.6 °F 30.2 °F 87% 29.62 in 10.0 mi NNW 23.0 mph 35.7 mph 0.03 in   Scattered Clouds
7:45 PM 33.8 °F 21.9 °F 30.2 °F 87% 29.61 in 10.0 mi NNW 21.9 mph 31.1 mph 0.03 in   Mostly Cloudy
7:53 PM 33.1 °F 20.6 °F 30.0 °F 89% 29.63 in 10.0 mi North 23.0 mph 33.4 mph 0.03 in   Mostly Cloudy
8:08 PM 32.0 °F 17.9 °F 28.4 °F 87% 29.64 in 10.0 mi NNW 28.8 mph 39.1 mph N/A   Overcast
8:31 PM 28.4 °F 13.5 °F 24.8 °F 86% 29.63 in 10.0 mi NNW 26.5 mph 39.1 mph N/A   Overcast
8:53 PM 28.0 °F 14.3 °F 21.9 °F 78% 29.75 in 10.0 mi North 21.9 mph 36.8 mph N/A   Overcast
9:53 PM 26.6 °F 12.0 °F 21.2 °F 80% 29.74 in 4.0 mi North 23.0 mph 29.9 mph N/A Snow Light Snow
10:03 PM 26.6 °F 13.1 °F 21.2 °F 80% 29.74 in 2.0 mi NNW 19.6 mph 28.8 mph 0.00 in Snow Light Snow
10:09 PM 26.6 °F 13.1 °F 21.2 °F 80% 29.75 in 3.0 mi NNW 19.6 mph 26.5 mph 0.00 in Snow Light Snow
10:40 PM 26.6 °F 13.8 °F 21.2 °F 80% 29.77 in 10.0 mi NNW 17.3 mph 26.5 mph 0.00 in   Overcast
10:53 PM 25.0 °F 9.9 °F 21.0 °F 85% 29.82 in 10.0 mi NNW 23.0 mph 28.8 mph 0.00 in   Overcast
11:21 PM 24.8 °F 10.0 °F 19.4 °F 80% 29.79 in 10.0 mi NNW 21.9 mph 32.2 mph N/A   Overcast
11:40 PM 24.8 °F 9.3 °F 19.4 °F 80% 29.79 in 10.0 mi NNW 24.2 mph 31.1 mph N/A   Overcast
11:53 PM 24.1 °F 10.1 °F 19.0 °F 81% 29.84 in 10.0 mi NNW 18.4 mph 33.4 mph N/A   Overcast